Location: Grand Lay
(47.3253°N, 0.9468°E)
Time: 18:15:45
(UTC+00:00)

Cosmos 2369 Rocket - Pass Details

Date: 18 January 2026
Orbit: 827 x 853 km, 71.0° (Epoch: 16 February)

Event Time Altitude Azimuth Distance (km) Brightness Sun altitude
Rises 06:56:11 0° 203° (SSW) 3,392 5.3 -7.0°
Reaches altitude 10° 06:58:36 10° 203° (SSW) 2,464 4.6 -6.6°
Maximum altitude 07:04:17 86° 116° (ESE) 859 2.4 -5.7°
Drops below altitude 10° 07:10:01 10° 28° (NNE) 2,491 4.7 -4.8°
Sets 07:12:29 0° 28° (NNE) 3,431 5.4 -4.5°
